SCP
0 0 0 0 0 0 0 0 0 0 0 0 0 0 0 0 0 0 0 0 0 0 0 0 0 0 0 0 0 0 0 0 0 0 0 0 0 0 0 0 0 0 0 0
0 0 0 0 0 0 0 0 0 0 0 0 0 0 0 0 0 0 0 0 0 0 0 0 0 0 0 0 0 0 0 0 0 0 0 0 0 0 0 0 0 0 0 0
0 0 0 0 0 0 0 0 0 0 0 0 0 0 0 0 0 0 0 0 0 0 0 0 0 0 0 0 0 0 0 0 0 0 0 0 0 0 0 0 0 0 0 0
0 0 0 0 0 0 0 0 0 0 0 0 0 0 0 0 0 0 0 0 0 0 0 0 0 0 0 0 0 0 0 0 0 0 0 0 0 0 0 0 0 0 0 0
0 0 0 0 0 0 0 0 0 0 0 0 0 0 0 0 0 0 0 0 0 0 0 0 0 0 0 0 0 0 0 0 0 0 0 0 0 0 0 0 0 0 0 0
0 0 0 0 0 0 0 0 0 0 0 0 0 0 0 0 0 0 0 0 0 0 0 0 0 0 0 0 0 0 0 0 0 0 0 0 0 0 0 0 0 0 0 0
0 0 0 0 0 0 0 0 0 0 0 0 0 0 0 0 0 0 0 0 0 0 0 0 0 0 0 0 0 0 0 0 0 0 0 0 0 0 0 0 0 0 0 0
0 0 0 0 0 0 0 0 0 0 0 0 0 0 0 0 0 0 0 0 0 0 0 0 0 0 0 0 0 0 0 0 0 0 0 0 0 0 0 0 0 0 0 0
0 0 0 0 0 0 0 0 0 0 0 0 0 0 0 0 0 0 0 0 0 0 0 0 0 0 0 0 0 0 0 0 0 0 0 0 0 0 0 0 0 0 0 0
0 0 0 0 0 0 0 0 0 0 0 0 0 0 0 0 0 0 0 0 0 0 0 0 0 0 0 0 0 0 0 0 0 0 0 0 0 0 0 0 0 0 0 0
0 0 0 0 0 0 0 0 0 0 0 0 0 0 0 0 0 0 0 0 0 0 0 0 0 0 0 0 0 0 0 0 0 0 0 0 0 0 0 0 0 0 0 0
0 0 0 0 0 0 0 0 0 0 0 0 0 0 0 0 0 0 0 0 0 0 0 0 0 0 0 0 0 0 0 0 0 0 0 0 0 0 0 0 0 0 0 0
0 0 0 0 0 0 0 0 0 0 0 0 0 0 0 0 0 0 0 0 0 0 0 0 0 0 0 0 0 0 0 0 0 0 0 0 0 0 0 0 0 0 0 0
0 0 0 0 0 0 0 0 0 0 0 0 0 0 0 0 0 0 0 0 0 0 0 0 0 0 0 0 0 0 0 0 0 0 0 0 0 0 0 0 0 0 0 0
0 0 0 0 0 0 0 0 0 0 0 0 0 0 0 0 0 0 0 0 0 0 0 0 0 0 0 0 0 0 0 0 0 0 0 0 0 0 0 0 0 0 0 0
0 0 0 0 0 0 0 0 0 0 0 0 0 0 0 0 0 0 0 0 0 0 0 0 0 0 0 0 0 0 0 0 0 0 0 0 0 0 0 0 0 0 0 0
0 0 0 0 0 0 0 0 0 0 0 0 0 0 0 0 0 0 0 0 0 0 0 0 0 0 0 0 0 0 0 0 0 0 0 0 0 0 0 0 0 0 0 0
0 0 0 0 0 0 0 0 0 0 0 0 0 0 0 0 0 0 0 0 0 0 0 0 0 0 0 0 0 0 0 0 0 0 0 0 0 0 0 0 0 0 0 0
0 0 0 0 0 0 0 0 0 0 0 0 0 0 0 0 0 0 0 0 0 0 0 0 0 0 0 0 0 0 0 0 0 0 0 0 0 0 0 0 0 0 0 0
0 0 0 0 0 0 0 0 0 0 0 0 0 0 0 0 0 0 0 0 0 0 0 0 0 0 0 0 0 0 0 0 0 0 0 0 0 0 0 0 0 0 0 0
0 0 0 0 0 0 0 0 0 0 0 0 0 0 0 0 0 0 0 0 0 0 0 0 0 0 0 0 0 0 0 0 0 0 0 0 0 0 0 0 0 0 0 0
0 0 0 0 0 0 0 0 0 0 0 0 0 0 0 0 0 0 0 0 0 0 0 0 0 0 0 0 0 0 0 0 0 0 0 0 0 0 0 0 0 0 0 0
0 0 0 0 0 0 0 0 0 0 0 0 0 0 0 0 0 0 0 0 0 0 0 0 0 0 0 0 0 0 0 0 0 0 0 0 0 0 0 0 0 0 0 0
0 0 0 0 0 0 0 0 0 0 0 0 0 0 0 0 0 0 0 0 0 0 0 0 0 0 0 0 0 0 0 0 0 0 0 0 0 0 0 0 0 0 0 0
0 0 0 0 0 0 0 0 0 0 0 0 0 0 0 0 0 0 0 0 0 0 0 0 0 0 0 0 0 0 0 0 0 0 0 0 0 0 0 0 0 0 0 0
0 0 0 0 0 0 0 0 0 0 0 0 0 0 0 0 0 0 0 0 0 0 0 0 0 0 0 0 0 0 0 0 0 0 0 0 0 0 0 0 0 0 0 0
Wind_Speed
4 7 9 9 10 6 4 6 8 6 1 5 8 9 5 1 5 8 8 9 9 10 10 10 11 11 10 9 8 7 6 6 5 4 4 4 5 6 6 7 10 10 10 11
6 11 10 4 4 6 8 9 9 5 2 5 7 8 2 4 6 7 9 9 10 10 11 11 11 11 11 11 9 8 6 6 5 4 3 2 3 3 4 5 7 9 10 11
13 2 3 6 7 8 9 11 8 5 2 4 6 5 6 6 6 7 7 8 9 9 11 11 11 12 11 11 9 6 6 5 4 4 3 2 2 3 3 4 5 6 8 9
10 4 5 7 8 9 8 7 7 5 6 3 3 4 8 10 10 9 9 9 10 9 10 10 11 11 11 9 8 8 7 6 4 3 3 3 2 3 3 3 3 5 6 7
7 6 7 9 7 9 3 3 4 3 5 6 6 7 6 12 15 15 12 11 10 9 10 10 9 9 9 8 7 7 7 6 4 3 1 2 2 3 3 4 5 5 4 5
6 4 5 4 2 5 6 5 4 2 4 7 5 8 6 11 18 18 15 13 11 10 9 9 9 8 8 7 7 6 7 7 5 3 2 1 3 4 5 5 5 4 3 4
8 8 6 5 6 6 6 6 5 6 6 4 3 6 6 6 10 16 18 16 13 11 10 10 9 9 8 7 7 6 6 6 5 4 3 2 2 4 5 5 5 5 5 4
8 7 10 9 9 9 9 7 6 5 3 1 4 7 2 4 4 7 13 15 13 12 10 9 9 8 7 7 6 6 5 5 4 3 3 2 2 3 3 5 5 6 5 6
8 4 4 3 2 6 8 7 3 3 1 5 5 5 4 4 5 8 12 15 14 12 11 10 9 8 7 6 5 5 4 3 3 2 2 3 3 4 5 6 6 6 6 6
7 4 4 4 4 2 2 5 5 6 5 6 5 6 4 8 9 11 14 16 15 13 11 10 9 7 6 5 4 4 3 2 2 3 3 3 4 5 5 6 7 8 9 9
7 6 5 5 9 9 7 6 5 4 4 5 5 3 1 4 8 11 14 15 15 14 12 10 8 7 6 5 4 3 2 2 2 3 4 4 5 6 7 7 8 9 9 10
8 6 5 5 2 2 7 8 9 7 6 5 5 4 4 3 5 8 11 12 12 11 10 9 8 7 6 4 3 2 1 2 3 4 5 5 6 7 8 9 9 10 11 11
10 8 6 5 5 5 6 6 8 5 4 7 8 7 5 3 5 8 10 11 10 10 9 9 7 6 5 3 1 1 1 2 3 4 6 7 7 8 9 10 10 11 12 12
6 7 9 8 3 8 8 9 10 11 8 10 13 14 6 7 8 9 11 11 10 10 9 9 7 6 4 2 0 1 2 3 4 5 7 8 9 9 10 11 11 12 12 13
6 8 8 7 1 5 8 10 14 16 15 14 15 16 15 11 10 10 11 11 11 10 9 8 7 5 3 1 1 2 3 4 5 7 8 8 9 10 10 11 12 12 13 14
6 6 5 6 4 6 8 12 15 17 17 19 20 21 12 5 6 9 11 12 12 11 9 8 6 4 2 1 2 3 4 5 6 8 9 9 9 10 11 12 13 13 14 14
8 8 7 7 3 4 12 15 17 14 14 14 18 16 5 6 9 11 11 12 11 10 8 7 5 3 2 2 3 5 6 6 7 9 9 9 10 11 12 13 14 14 15 15
9 7 5 4 5 13 7 2 9 14 16 16 14 7 6 6 5 6 8 10 10 8 7 5 3 3 2 3 4 5 6 7 8 9 10 10 10 12 13 14 15 15 15 15
6 8 6 5 9 13 7 5 8 10 11 11 14 10 6 7 7 5 6 7 7 7 5 4 3 2 2 4 5 6 8 8 9 10 11 11 11 13 14 15 16 15 15 15
3 5 7 6 8 11 5 4 5 4 9 6 10 10 11 12 8 7 8 7 7 6 4 3 2 2 4 4 5 7 9 9 10 11 12 12 13 14 15 16 16 15 15 15
8 7 11 12 12 12 1 7 8 8 4 5 9 11 13 10 3 8 10 7 6 5 4 3 2 3 4 5 6 8 10 10 11 11 12 13 13 14 15 15 14 15 15 15
13 11 12 10 12 12 8 11 11 4 4 6 9 10 10 7 8 8 8 7 6 4 3 2 3 4 5 6 7 9 11 11 11 12 13 14 14 13 12 14 15 15 15 16
11 10 8 11 8 1 8 6 2 3 5 7 9 9 10 9 8 7 6 6 5 3 3 3 4 6 7 7 8 11 12 12 12 13 14 14 14 13 13 14 15 14 13 12
7 3 5 6 6 3 5 4 3 5 5 7 8 9 9 8 8 7 6 5 4 3 3 4 5 7 9 9 9 11 12 11 12 14 14 13 13 14 13 11 11 11 11 12
7 9 7 7 3 3 6 8 7 6 7 8 8 7 8 8 7 6 5 4 3 3 4 5 6 8 10 11 11 12 12 12 13 14 13 13 12 13 13 12 11 12 12 13
7 8 9 8 7 7 5 7 10 10 9 9 9 7 6 6 6 5 4 3 3 4 5 6 8 10 11 12 13 13 12 12 13 12 12 10 10 11 11 12 12 13 16 22
Wind_Direction
170 221 235 238 234 265 264 257 265 273 307 273 265 276 295 279 166 148 133 117 98 82 73 68 70 76 83 89 99 114 134 150 162 170 188 208 225 231 236 240 246 246 246 244
203 240 255 253 210 220 235 251 262 265 194 267 284 282 260 157 153 144 136 122 112 105 91 79 78 78 78 82 89 100 115 136 157 170 183 213 244 254 260 254 253 252 250 249
230 244 140 172 185 208 227 241 257 269 253 220 282 236 166 151 144 140 137 127 119 111 104 95 86 81 80 76 77 87 98 118 143 163 178 192 227 246 244 252 258 260 258 255
240 224 185 212 220 220 243 235 240 242 263 250 273 261 175 170 170 166 157 147 133 124 113 105 97 88 81 79 82 86 92 101 118 154 189 218 254 280 303 305 290 284 270 263
217 192 197 219 229 209 220 107 173 222 250 268 222 249 187 176 188 182 171 159 146 136 125 115 105 99 92 89 87 89 92 92 100 123 163 251 280 302 310 308 298 296 286 272
243 194 217 214 106 174 140 130 118 173 227 247 211 228 213 190 199 184 175 169 160 150 139 126 119 115 106 99 93 93 93 89 89 95 95 333 322 318 318 318 317 311 302 287
225 219 203 170 145 155 187 208 224 214 212 230 144 237 252 178 195 190 180 175 169 161 155 147 141 132 120 109 100 98 94 89 84 82 70 39 345 324 319 321 318 314 308 301
215 212 190 194 209 192 196 225 246 266 260 203 188 241 242 123 165 198 188 176 171 170 165 158 149 140 129 119 111 103 94 87 76 64 50 24 350 320 319 315 309 305 302 302
214 202 115 171 199 193 176 209 268 279 286 270 239 254 256 166 191 192 188 180 179 176 171 164 156 147 138 128 116 104 97 84 64 39 11 351 335 320 314 307 300 297 295 298
214 193 145 135 138 47 275 158 171 214 241 250 248 245 233 188 191 182 184 185 181 176 172 167 161 153 142 131 121 108 88 62 34 4 355 329 321 317 308 302 300 299 299 297
208 204 157 180 207 193 165 183 207 206 257 260 262 244 170 202 185 184 185 184 179 177 174 170 163 154 146 139 130 109 79 38 2 345 332 320 319 314 307 301 301 301 299 298
192 212 200 189 107 295 222 210 196 217 218 234 270 273 105 206 193 189 181 177 175 173 170 167 161 158 155 146 129 97 42 357 342 331 321 317 313 308 303 302 303 302 299 297
162 190 188 177 181 182 211 208 214 230 238 224 240 252 115 185 194 191 183 173 171 169 166 165 164 163 158 150 134 57 356 337 330 322 315 312 310 309 306 305 304 302 299 297
176 202 226 239 211 169 192 198 198 204 226 236 238 257 232 212 205 191 186 179 172 168 168 167 165 163 156 153 147 326 324 324 320 312 309 308 309 309 306 304 302 300 298 296
197 224 231 253 224 185 208 204 199 212 232 248 257 259 261 245 224 207 189 177 171 168 169 169 168 163 165 185 263 306 310 312 310 305 303 303 305 304 301 299 299 298 296 294
202 222 210 229 213 222 240 234 222 227 239 248 260 266 273 265 215 197 187 180 178 175 172 168 168 172 192 249 290 298 300 305 302 298 298 301 300 299 298 298 299 298 296 295
184 186 200 238 179 228 246 233 225 224 225 235 249 260 229 197 198 196 187 181 179 174 170 170 173 184 215 263 285 292 297 299 296 295 296 297 298 298 299 299 298 298 298 297
178 185 213 217 187 238 253 172 224 234 242 236 246 250 202 201 176 178 178 176 171 165 165 167 173 193 230 264 280 288 290 291 292 294 296 298 298 297 299 300 299 299 299 298
206 182 184 199 238 259 253 206 193 212 247 231 231 226 183 143 138 159 169 170 161 156 156 158 173 208 246 271 283 287 287 290 292 295 299 301 300 298 299 299 300 302 301 298
179 211 203 200 229 247 243 147 160 186 257 210 203 188 163 162 184 173 157 152 144 142 147 158 179 227 258 275 286 285 289 293 296 300 302 302 300 298 297 299 301 301 299 297
169 192 214 221 237 257 178 138 158 211 270 143 176 170 168 180 156 125 141 144 147 149 155 171 219 251 269 283 285 285 291 295 301 301 299 298 298 298 299 299 298 299 298 296
179 185 203 210 229 242 153 160 198 232 97 155 163 164 163 141 119 129 140 144 152 161 175 210 252 270 280 283 284 287 293 301 304 300 297 297 299 300 298 297 298 299 299 298
207 201 196 204 223 14 163 190 194 134 162 164 161 158 151 145 148 148 153 158 166 184 208 242 267 280 285 287 288 290 298 305 304 300 297 299 301 299 298 298 299 300 299 297
211 204 201 222 235 212 206 209 192 181 168 154 149 148 152 151 152 156 160 170 187 210 238 259 274 283 292 298 297 293 299 302 299 298 299 300 301 300 300 298 295 295 297 297
188 175 201 230 230 209 219 210 184 157 142 135 131 138 147 147 155 164 173 190 212 239 256 268 276 285 293 300 299 300 301 301 298 298 299 300 298 298 299 297 293 294 289 289
184 186 195 223 201 198 200 181 170 158 153 148 138 134 141 152 158 168 189 213 239 260 272 277 282 286 293 298 299 301 302 300 298 297 298 299 299 298 297 299 298 287 284 292